H1 CPF 2 NER 2021 12 6 9 340 01 glonass138 H2 1805301 9138 43508 2021 12 6 0 0 0 2021 12 9 23 45 0 900 1 1 0 0 0 1 H9 10 0 59554 0.00000 0 4794427.734 19406282.984 15867644.577 10 0 59554 900.00000 0 3608276.914 17679926.969 18047289.279 10 0 59554 1800.00000 0 2134584.565 15861118.054 19876925.432 10 0 59554 2700.00000 0 387696.926 14014164.261 21321018.101 10 0 59554 3600.00000 0 -1605597.839 12201096.523 22351489.347 10 0 59554 4500.00000 0 -3806933.594 10479155.541 22948264.426 10 0 59554 5400.00000 0 -6167721.121 8898496.093 23099665.084 10 0 59554 6300.00000 0 -8630939.367 7500204.039 22802642.284 10 0 59554 7200.00000 0 -11133290.179 6314708.477 22062843.507 10 0 59554 8100.00000 0 -13607628.484 5360655.020 20894512.774 10 0 59554 9000.00000 0 -15985568.120 4644287.092 19320224.516 10 0 59554 9900.00000 0 -18200155.716 4159361.134 17370455.487 10 0 59554 10800.00000 0 -20188501.830 3887599.179 15083002.023 10 0 59554 11700.00000 0 -21894259.789 3799659.774 12502252.947 10 0 59554 12600.00000 0 -23269848.432 3856586.290 9678331.491 10 0 59554 13500.00000 0 -24278325.414 4011671.291 6666122.391 10 0 59554 14400.00000 0 -24894831.954 4212657.766 3524202.822 10 0 59554 15300.00000 0 -25107547.794 4404183.427 313698.285 10 0 59554 16200.00000 0 -24918115.724 4530363.656 -2902913.784 10 0 59554 17100.00000 0 -24341517.545 4537402.444 -6063028.556 10 0 59554 18000.00000 0 -23405406.626 4376119.404 -9105141.524 10 0 59554 18900.00000 0 -22148925.466 4004284.343 -11970054.371 10 0 59554 19800.00000 0 -20621058.560 3388659.130 -14602034.550 10 0 59554 20700.00000 0 -18878590.665 2506659.228 -16949904.980 10 0 59554 21600.00000 0 -16983757.156 1347563.544 -18968042.198 10 0 59554 22500.00000 0 -15001685.945 -86779.393 -20617263.323 10 0 59554 23400.00000 0 -12997738.970 -1781779.321 -21865584.627 10 0 59554 24300.00000 0 -11034865.010 -3710474.068 -22688837.505 10 0 59554 25200.00000 0 -9171074.568 -5834426.214 -23071130.511 10 0 59554 26100.00000 0 -7457142.059 -8105109.390 -23005149.322 10 0 59554 27000.00000 0 -5934630.457 -10465726.640 -22492289.669 10 0 59554 27900.00000 0 -4634319.700 -12853385.362 -21542621.453 10 0 59554 28800.00000 0 -3575103.057 -15201538.470 -20174685.397 10 0 59554 29700.00000 0 -2763395.882 -17442590.625 -18415126.694 10 0 59554 30600.00000 0 -2193079.681 -19510561.537 -16298172.991 10 0 59554 31500.00000 0 -1845982.187 -21343695.939 -13864966.981 10 0 59554 32400.00000 0 -1692871.655 -22886912.202 -11162766.511 10 0 59554 33300.00000 0 -1694922.255 -24093988.138 -8244027.508 10 0 59554 34200.00000 0 -1805587.837 -24929393.440 -5165387.438 10 0 59554 35100.00000 0 -1972804.280 -25369692.887 -1986568.750 10 0 59554 36000.00000 0 -2141426.992 -25404462.266 1230776.609 10 0 59554 36900.00000 0 -2255800.327 -25036679.196 4424259.281 10 0 59554 37800.00000 0 -2262350.205 -24282572.928 7531958.242 10 0 59554 38700.00000 0 -2112090.304 -23170939.692 10493617.031 10 0 59554 39600.00000 0 -1762935.869 -21741952.386 13251807.389 10 0 59554 40500.00000 0 -1181727.264 -20045514.384 15753038.077 10 0 59554 41400.00000 0 -345877.509 -18139226.115 17948787.775 10 0 59554 42300.00000 0 755426.173 -16086049.028 19796442.389 10 0 59554 43200.00000 0 2120518.298 -13951764.000 21260119.122 10 0 59554 44100.00000 0 3735079.346 -11802329.567 22311361.787 10 0 59554 45000.00000 0 5572497.118 -9701249.493 22929694.169 10 0 59554 45900.00000 0 7594751.853 -7707058.634 23103020.955 10 0 59554 46800.00000 0 9753789.993 -5871031.149 22827868.408 10 0 59554 47700.00000 0 11993331.040 -4235205.987 22109459.791 10 0 59554 48600.00000 0 14251033.927 -2830811.443 20961623.573 10 0 59554 49500.00000 0 16460934.082 -1677154.092 19406535.336 10 0 59554 50400.00000 0 18556050.618 -781018.293 17474297.504 10 0 59554 51300.00000 0 20471055.679 -136601.142 15202363.964 10 0 59554 52200.00000 0 22144894.761 274014.631 12634819.795 10 0 59554 53100.00000 0 23523248.288 479869.867 9821529.288 10 0 59554 54000.00000 0 24560730.965 519662.410 6817168.290 10 0 59554 54900.00000 0 25222736.008 439867.116 3680159.412 10 0 59554 55800.00000 0 25486845.957 292522.596 471531.120 10 0 59554 56700.00000 0 25343750.014 132779.279 -2746276.629 10 0 59554 57600.00000 0 24797628.634 16313.776 -5910636.102 10 0 59554 58500.00000 0 23865988.769 -3279.568 -8959959.924 10 0 59554 59400.00000 0 22578956.561 122991.936 -11834908.622 10 0 59554 60300.00000 0 20978057.427 437197.169 -14479553.051 10 0 59554 61200.00000 0 19114535.265 972455.810 -16842468.110 10 0 59554 62100.00000 0 17047282.033 1751296.515 -18877735.920 10 0 59554 63000.00000 0 14840465.212 2784468.944 -20545838.728 10 0 59554 63900.00000 0 12560953.232 4070260.393 -21814424.182 10 0 59554 64800.00000 0 10275647.007 5594346.373 -22658928.621 10 0 59554 65700.00000 0 8048829.165 7330181.785 -23063046.888 10 0 59554 66600.00000 0 5939641.468 9239916.556 -23019040.361 10 0 59554 67500.00000 0 3999794.925 11275797.660 -22527878.113 10 0 59554 68400.00000 0 2271607.009 13381999.177 -21599209.248 10 0 59554 69300.00000 0 786446.453 15496804.191 -20251167.643 10 0 59554 70200.00000 0 -436351.208 17555047.837 -18510013.389 10 0 59554 71100.00000 0 -1390053.919 19490720.012 -16409618.143 10 0 59554 72000.00000 0 -2080567.218 21239619.530 -13990804.540 10 0 59554 72900.00000 0 -2525932.596 22741949.530 -11300552.412 10 0 59554 73800.00000 0 -2755312.815 23944746.248 -8391087.039 10 0 59554 74700.00000 0 -2807508.160 24804040.159 -5318867.008 10 0 59554 75600.00000 0 -2729067.271 25286659.601 -2143491.073 10 0 59554 76500.00000 0 -2572072.945 25371601.849 1073454.985 10 0 59554 77400.00000 0 -2391696.902 25050914.520 4269589.206 10 0 59554 78300.00000 0 -2243627.083 24330050.662 7382939.094 10 0 59554 79200.00000 0 -2181476.315 23227682.730 10353138.872 10 0 59554 80100.00000 0 -2254281.880 21774983.168 13122595.252 10 0 59554 81000.00000 0 -2504201.656 20014401.546 15637599.447 10 0 59554 81900.00000 0 -2964504.231 17997988.921 17849364.259 10 0 59554 82800.00000 0 -3657938.062 15785338.967 19714966.480 10 0 59554 83700.00000 0 -4595548.958 13441231.105 21198176.865 10 0 59554 84600.00000 0 -5775996.499 11033073.074 22270162.027 10 0 59554 85500.00000 0 -7185399.277 8628248.682 22910044.979 10 0 59555 0.00000 0 -8797716.743 6291480.438 23105313.665 10 0 59555 900.00000 0 -10575654.265 4082314.692 22852069.584 10 0 59555 1800.00000 0 -12472053.031 2052836.325 22155111.219 10 0 59555 2700.00000 0 -14431711.361 245703.209 21027850.488 10 0 59555 3600.00000 0 -16393560.763 -1307415.081 19492062.667 10 0 59555 4500.00000 0 -18293107.908 -2586930.845 17577473.901 10 0 59555 5400.00000 0 -20065041.249 -3585918.616 15321193.255 10 0 59555 6300.00000 0 -21645893.747 -4310158.316 12766999.287 10 0 59555 7200.00000 0 -22976650.171 -4777639.690 9964494.254 10 0 59555 8100.00000 0 -24005189.347 -5017549.238 6968141.781 10 0 59555 9000.00000 0 -24688458.115 -5068782.889 3836206.447 10 0 59555 9900.00000 0 -24994284.678 -4978047.818 629616.156 10 0 59555 10800.00000 0 -24902754.098 -4797634.612 -2589230.109 10 0 59555 11700.00000 0 -24407087.023 -4582955.120 -5757685.123 10 0 59555 12600.00000 0 -23513983.901 -4389951.562 -8814081.914 10 0 59555 13500.00000 0 -22243419.600 -4272487.977 -11698942.926 10 0 59555 14400.00000 0 -20627896.883 -4279835.924 -14356145.247 10 0 59555 15300.00000 0 -18711190.168 -4454362.105 -16734018.248 10 0 59555 16200.00000 0 -16546632.672 -4829516.908 -18786351.705 10 0 59555 17100.00000 0 -14195019.190 -5428209.739 -20473294.557 10 0 59555 18000.00000 0 -11722212.866 -6261640.365 -21762126.817 10 0 59555 18900.00000 0 -9196556.396 -7328635.958 -22627890.123 10 0 59555 19800.00000 0 -6686195.870 -8615522.014 -23053865.317 10 0 59555 20700.00000 0 -4256428.769 -10096532.678 -23031888.580 10 0 59555 21600.00000 0 -1967186.066 -11734743.362 -22562500.868 10 0 59555 22500.00000 0 129247.681 -13483486.691 -21654928.560 10 0 59555 23400.00000 0 1990182.485 -15288192.574 -20326896.369 10 0 59555 24300.00000 0 3584059.822 -17088575.684 -18604276.662 10 0 59555 25200.00000 0 4891515.989 -18821079.122 -16520582.270 10 0 59555 26100.00000 0 5905929.398 -20421472.397 -14116312.775 10 0 59555 27000.00000 0 6633430.872 -21827495.505 -11438166.926 10 0 59555 27900.00000 0 7092378.358 -22981438.844 -8538136.264 10 0 59555 28800.00000 0 7312319.643 -23832551.379 -5472497.453 10 0 59555 29700.00000 0 7332488.101 -24339176.543 -2300722.595 10 0 59555 30600.00000 0 7199895.849 -24470526.658 915671.512 10 0 59555 31500.00000 0 6967105.437 -24208021.672 4114312.938 10 0 59555 32400.00000 0 6689774.620 -23546136.161 7233180.129 10 0 59555 33300.00000 0 6424078.118 -22492719.017 10211800.156 10 0 59555 34200.00000 0 6224115.325 -21068772.199 12992416.593 10 0 59555 35100.00000 0 6139413.437 -19307697.417 15521104.707 10 0 59555 36000.00000 0 6212631.400 -17254041.682 17748812.704 10 0 59555 36900.00000 0 6477561.573 -14961793.437 19632309.209 10 0 59555 37800.00000 0 6957513.581 -12492299.514 21135019.131 10 0 59555 38700.00000 0 7664148.902 -9911888.702 22227732.154 10 0 59555 39600.00000 0 8596815.924 -7289299.926 22889170.452 10 0 59555 40500.00000 0 9742414.486 -4693020.890 23106404.859 10 0 59555 41400.00000 0 11075796.928 -2188646.792 22875111.420 10 0 59555 42300.00000 0 12560690.303 163631.976 22199663.069 10 0 59555 43200.00000 0 14151102.724 2311309.574 21093054.146 10 0 59555 44100.00000 0 15793156.524 4211517.756 19576658.436 10 0 59555 45000.00000 0 17427272.737 5832571.325 17679824.491 10 0 59555 45900.00000 0 18990616.508 7155042.016 15439315.079 10 0 59555 46800.00000 0 20419701.546 8172316.263 12898600.617 10 0 59555 47700.00000 0 21653044.567 8890613.771 10107019.511 10 0 59555 48600.00000 0 22633758.019 9328466.508 7118821.151 10 0 59555 49500.00000 0 23311971.478 9515680.523 3992109.852 10 0 59555 50400.00000 0 23646978.847 9491824.938 787710.518 10 0 59555 51300.00000 0 23609019.869 9304312.780 -2432021.443 10 0 59555 52200.00000 0 23180619.658 9006155.804 -5604422.005 10 0 59555 53100.00000 0 22357428.778 8653489.518 -8667747.300 10 0 59555 54000.00000 0 21148527.536 8302974.496 -11562384.302 10 0 59555 54900.00000 0 19576181.069 8009185.372 -14232018.772 10 0 59555 55800.00000 0 17675055.202 7822099.262 -16624736.769 10 0 59555 56700.00000 0 15490925.970 7784790.992 -18694037.693 10 0 59555 57600.00000 0 13078937.031 7931433.396 -20399738.879 10 0 59555 58500.00000 0 10501478.287 8285687.721 -21708754.154 10 0 59555 59400.00000 0 7825774.602 8859552.328 -22595731.655 10 0 59555 60300.00000 0 5121285.360 9652718.303 -23043539.161 10 0 59555 61200.00000 0 2457023.232 10652459.002 -23043588.297 10 0 59555 62100.00000 0 -101096.667 11834058.008 -22595992.217 10 0 59555 63000.00000 0 -2492767.701 13161757.398 -21709554.494 10 0 59555 63900.00000 0 -4665559.307 14590186.378 -20401590.173 10 0 59555 64800.00000 0 -6576848.348 16066210.391 -18697582.947 10 0 59555 65700.00000 0 -8195335.505 17531123.264 -16630685.430 10 0 59555 66600.00000 0 -9502085.251 18923090.701 -14241072.355 10 0 59555 67500.00000 0 -10491047.926 20179742.940 -11575159.221 10 0 59555 68400.00000 0 -11169043.951 21240808.202 -8684701.365 10 0 59555 69300.00000 0 -11555212.504 22050676.734 -5625790.810 10 0 59555 70200.00000 0 -11679949.365 22560788.156 -2457770.125 10 0 59555 71100.00000 0 -11583379.812 22731742.088 757915.865 10 0 59555 72000.00000 0 -11313431.809 22535043.542 3958908.305 10 0 59555 72900.00000 0 -10923591.377 21954409.778 7083139.611 10 0 59555 73800.00000 0 -10470435.204 20986583.580 10070032.671 10 0 59555 74700.00000 0 -10011044.782 19641618.498 12861670.774 10 0 59555 75600.00000 0 -9600411.165 17942623.554 15403915.920 10 0 59555 76500.00000 0 -9288939.772 15924977.363 17647454.194 10 0 59555 77400.00000 0 -9120160.299 13635043.659 19548748.291 10 0 59555 78300.00000 0 -9128738.227 11128440.766 21070879.229 10 0 59555 79200.00000 0 -9338871.773 8467935.983 22184261.409 10 0 59555 80100.00000 0 -9763142.045 5721051.331 22867217.475 10 0 59555 81000.00000 0 -10401865.360 2957478.979 23106402.082 10 0 59555 81900.00000 0 -11242975.824 246412.483 22897066.379 10 0 59555 82800.00000 0 -12262444.172 -2346096.337 22243157.787 10 0 59555 83700.00000 0 -13425216.631 -4759646.077 21157252.675 10 0 59555 84600.00000 0 -14686635.736 -6941756.564 19660322.445 10 0 59555 85500.00000 0 -15994284.739 -8849807.848 17781336.674 10 0 59556 0.00000 0 -17290179.170 -10452566.975 15556710.191 10 0 59556 900.00000 0 -18513214.964 -11731239.966 13029602.566 10 0 59556 1800.00000 0 -19601768.857 -12680003.126 10249085.865 10 0 59556 2700.00000 0 -20496343.920 -13305994.623 7269192.240 10 0 59556 3600.00000 0 -21142146.577 -13628764.807 4147862.501 10 0 59556 4500.00000 0 -21491486.345 -13679209.819 945815.147 10 0 59556 5400.00000 0 -21505895.844 -13498033.994 -2274641.487 10 0 59556 6300.00000 0 -21157880.359 -13133806.915 -5450830.112 10 0 59556 7200.00000 0 -20432221.877 -12640698.305 -8520933.477 10 0 59556 8100.00000 0 -19326781.418 -12075987.848 -11425206.509 10 0 59556 9000.00000 0 -17852764.880 -11497456.539 -14107146.911 10 0 59556 9900.00000 0 -16034440.549 -10960771.205 -16514600.444 10 0 59556 10800.00000 0 -13908319.724 -10516973.856 -18600778.788 10 0 59556 11700.00000 0 -11521834.635 -10210182.801 -20325169.874 10 0 59556 12600.00000 0 -8931569.112 -10075603.155 -21654322.984 10 0 59556 13500.00000 0 -6201116.022 -10137930.857 -22562493.778 10 0 59556 14400.00000 0 -3398650.903 -10410217.409 -23032137.339 10 0 59556 15300.00000 0 -594322.878 -10893242.817 -23054240.473 10 0 59556 16200.00000 0 2142428.903 -11575422.688 -22628487.665 10 0 59556 17100.00000 0 4745522.369 -12433252.895 -21763258.320 10 0 59556 18000.00000 0 7154733.926 -13432272.687 -20475456.008 10 0 59556 18900.00000 0 9317951.432 -14528505.402 -18790173.597 10 0 59556 19800.00000 0 11193086.490 -15670316.137 -16740201.020 10 0 59556 20700.00000 0 12749568.009 -16800608.215 -14365385.445 10 0 59556 21600.00000 0 13969356.563 -17859266.297 -11711856.186 10 0 59556 22500.00000 0 14847438.952 -18785743.629 -8831129.256 10 0 59556 23400.00000 0 15391783.965 -19521684.884 -5779108.787 10 0 59556 24300.00000 0 15622762.745 -20013474.536 -2615004.481 10 0 59556 25200.00000 0 15572059.478 -20214603.749 599814.142 10 0 59556 26100.00000 0 15281119.226 -20087756.310 3803004.541 10 0 59556 27000.00000 0 14799199.072 -19606525.827 6932456.172 10 0 59556 27900.00000 0 14181105.181 -18756691.780 9927490.540 10 0 59556 28800.00000 0 13484711.407 -17537000.418 12730033.122 10 0 59556 29700.00000 0 12768364.066 -15959417.118 15285734.743 10 0 59556 30600.00000 0 12088282.150 -14048838.763 17545021.044 10 0 59556 31500.00000 0 11496062.249 -11842277.208 19464050.029 10 0 59556 32400.00000 0 11036393.047 -9387546.688 21005559.643 10 0 59556 33300.00000 0 10745075.345 -6741508.554 22139589.395 10 0 59556 34200.00000 0 10647430.884 -3967945.092 22844062.400 10 0 59556 35100.00000 0 10757166.994 -1135149.351 23105216.778 10 0 59556 36000.00000 0 11075745.172 1686670.275 22917878.096 10 0 59556 36900.00000 0 11592280.784 4428064.159 22285567.305 10 0 59556 37800.00000 0 12283978.955 7022984.335 21220441.609 10 0 59556 38700.00000 0 13117089.340 9411287.371 19743068.641 10 0 59556 39600.00000 0 14048340.729 11540993.735 17882037.450 10 0 59556 40500.00000 0 15026796.111 13370210.158 15673412.792 10 0 59556 41400.00000 0 15996050.931 14868635.126 13160042.344 10 0 59556 42300.00000 0 16896682.429 16018584.741 10390729.451 10 0 59556 43200.00000 0 17668846.872 16815496.192 7419286.865 10 0 59556 44100.00000 0 18254914.839 17267887.897 4303489.570 10 0 59556 45000.00000 0 18602032.531 17396778.272 1103947.211 10 0 59556 45900.00000 0 18664499.902 17234588.141 -2117081.512 10 0 59556 46800.00000 0 18405863.872 16823573.762 -5296908.623 10 0 59556 47700.00000 0 17800636.805 16213857.593 -8373646.030 10 0 59556 48600.00000 0 16835566.361 15461141.092 -11287419.035 10 0 59556 49500.00000 0 15510401.922 14624197.432 -13981539.520 10 0 59556 50400.00000 0 13838124.320 13762251.314 -16403614.975 10 0 59556 51300.00000 0 11844628.465 12932357.653 -18506571.147 10 0 59556 52200.00000 0 9567871.687 12186890.669 -20249568.131 10 0 59556 53100.00000 0 7056523.271 11571249.894 -21598792.014 10 0 59556 54000.00000 0 4368171.525 11121879.968 -22528107.119 10 0 59556 54900.00000 0 1567163.117 10864687.508 -23019556.774 10 0 59556 55800.00000 0 -1277835.316 10813921.185 -23063703.656 10 0 59556 56700.00000 0 -4096452.111 10971561.464 -22659803.993 10 0 59556 57600.00000 0 -6819293.851 11327244.816 -21815813.075 10 0 59556 58500.00000 0 -9380586.109 11858724.797 -20548222.671 10 0 59556 59400.00000 0 -11720662.920 12532849.812 -18881734.064 10 0 59556 60300.00000 0 -13788202.793 13307015.906 -16848773.351 10 0 59556 61200.00000 0 -15542119.506 14131033.032 -14488858.598 10 0 59556 62100.00000 0 -16953030.550 14949326.070 -11847831.081 10 0 59556 63000.00000 0 -18004243.555 15703377.898 -8976965.375 10 0 59556 63900.00000 0 -18692220.998 16334311.695 -5931975.415 10 0 59556 64800.00000 0 -19026505.285 16785503.830 -2771935.587 10 0 59556 65700.00000 0 -19029108.647 17005117.366 441862.454 10 0 59556 66600.00000 0 -18733394.560 16948449.507 3647095.129 10 0 59556 67500.00000 0 -18182498.593 16579994.037 6781611.649 10 0 59556 68400.00000 0 -17427355.706 15875131.731 9784634.900 10 0 59556 69300.00000 0 -16524417.363 14821377.209 12597935.317 10 0 59556 70200.00000 0 -15533154.643 13419129.235 15166955.287 10 0 59556 71100.00000 0 -14513452.351 11681892.078 17441862.662 10 0 59556 72000.00000 0 -13523003.476 9635957.628 19378513.255 10 0 59556 72900.00000 0 -12614813.229 7319560.240 20939304.214 10 0 59556 73800.00000 0 -11834917.173 4781538.089 22093902.171 10 0 59556 74700.00000 0 -11220408.988 2079555.318 22819832.382 10 0 59556 75600.00000 0 -10797860.477 -722042.679 23102917.732 10 0 59556 76500.00000 0 -10582200.129 -3554653.305 22937559.104 10 0 59556 77400.00000 0 -10576097.511 -6348020.835 22326851.437 10 0 59556 78300.00000 0 -10769879.739 -9032913.702 21282532.772 10 0 59556 79200.00000 0 -11141984.131 -11543764.861 19824766.522 10 0 59556 80100.00000 0 -11659928.717 -13821166.202 17981760.277 10 0 59556 81000.00000 0 -12281760.493 -15814113.759 15789227.571 10 0 59556 81900.00000 0 -12957921.072 -17481910.462 13289701.996 10 0 59556 82800.00000 0 -13633451.480 -18795647.011 10531716.194 10 0 59556 83700.00000 0 -14250443.238 -19739198.954 7568861.037 10 0 59556 84600.00000 0 -14750631.913 -20309698.186 4458742.924 10 0 59556 85500.00000 0 -15078022.960 -20517459.066 1261859.675 10 0 59557 0.00000 0 -15181437.818 -20385362.577 -1959582.480 10 0 59557 900.00000 0 -15016871.366 -19947724.766 -5142888.734 10 0 59557 1800.00000 0 -14549559.548 -19248698.149 -8226103.207 10 0 59557 2700.00000 0 -13755668.515 -18340274.229 -11149224.962 10 0 59557 3600.00000 0 -12623532.353 -17279972.621 -13855383.412 10 0 59557 4500.00000 0 -11154386.107 -16128315.486 -16291950.998 10 0 59557 5400.00000 0 -9362562.201 -14946194.900 -18411570.533 10 0 59557 6300.00000 0 -7275141.235 -13792245.078 -20173076.928 10 0 59557 7200.00000 0 -4931071.341 -12720330.793 -21542295.291 10 0 59557 8100.00000 0 -2379792.603 -11777257.987 -22492700.310 10 0 59557 9000.00000 0 320576.242 -11000802.704 -23005924.683 10 0 59557 9900.00000 0 3105413.336 -10418140.723 -23072107.517 10 0 59557 10800.00000 0 5906041.198 -10044742.998 -22690076.802 10 0 59557 11700.00000 0 8652344.775 -9883782.264 -21867363.243 10 0 59557 12600.00000 0 11275451.769 -9926074.574 -20620045.895 10 0 59557 13500.00000 0 13710364.636 -10150557.053 -18972433.152 10 0 59557 14400.00000 0 15898435.879 -10525280.759 -16956585.594 10 0 59557 15300.00000 0 17789584.746 -11008876.048 -14611690.130 10 0 59557 16200.00000 0 19344164.350 -11552428.104 -11983297.574 10 0 59557 17100.00000 0 20534402.788 -12101683.255 -9122438.274 10 0 59557 18000.00000 0 21345359.357 -12599492.870 -6084632.843 10 0 59557 18900.00000 0 21775357.300 -12988391.709 -2928816.952 10 0 59557 19800.00000 0 21835876.141 -13213201.986 283799.195 10 0 59557 20700.00000 0 21550909.174 -13223553.294 3490914.632 10 0 59557 21600.00000 0 20955813.945 -12976212.079 6630341.912 10 0 59557 22500.00000 0 20095704.611 -12437122.263 9641208.703 10 0 59557 23400.00000 0 19023454.128 -11583070.738 12465133.503 10 0 59557 24300.00000 0 17797390.365 -10402907.081 15047353.006 10 0 59557 25200.00000 0 16478782.851 -8898265.404 17337779.577 10 0 59557 26100.00000 0 15129225.477 -7083757.040 19291968.702 10 0 59557 27000.00000 0 13808024.619 -4986624.677 20871978.140 10 0 59557 27900.00000 0 12569701.749 -2645870.830 22047102.597 10 0 59557 28800.00000 0 11461714.805 -110895.462 22794470.003 10 0 59557 29700.00000 0 10522493.361 2560302.309 23099488.113 10 0 59557 30600.00000 0 9779869.598 5303285.342 22956132.832 10 0 59557 31500.00000 0 9249970.693 8049614.141 22367072.418 10 0 59557 32400.00000 0 8936619.026 10729457.410 21343624.738 10 0 59557 33300.00000 0 8831265.578 13274270.194 19905547.643 10 0 59557 34200.00000 0 8913459.604 15619429.118 18080665.660 10 0 59557 35100.00000 0 9151835.252 17706715.684 15904339.232 10 0 59557 36000.00000 0 9505573.937 19486544.448 13418785.778 10 0 59557 36900.00000 0 9926281.116 20919843.025 10672264.952 10 0 59557 37800.00000 0 10360198.298 21979505.215 7718143.263 10 0 59557 38700.00000 0 10750656.603 22651356.148 4613855.905 10 0 59557 39600.00000 0 11040667.536 22934588.698 1419786.114 10 0 59557 40500.00000 0 11175540.482 22841652.792 -1801915.740 10 0 59557 41400.00000 0 11105414.909 22397602.409 -4988549.649 10 0 59557 42300.00000 0 10787598.775 21638928.155 -8078095.238 10 0 59557 43200.00000 0 10188612.674 20611925.325 -11010427.874 10 0 59557 44100.00000 0 9285851.866 19370667.084 -13728496.820 10 0 59557 45000.00000 0 8068794.653 17974669.276 -16179441.531 10 0 59557 45900.00000 0 6539704.977 16486346.251 -18315623.694 10 0 59557 46800.00000 0 4713798.715 14968365.754 -20095554.581 10 0 59557 47700.00000 0 2618865.993 13481014.875 -21484699.644 10 0 59557 48600.00000 0 294364.831 12079688.097 -22456145.020 10 0 59557 49500.00000 0 -2209976.376 10812602.883 -22991113.651 10 0 59557 50400.00000 0 -4835989.412 9718838.211 -23079321.691 10 0 59557 51300.00000 0 -7519253.831 8826777.465 -22719169.216 10 0 59557 52200.00000 0 -10191550.921 8153019.785 -21917762.324 10 0 59557 53100.00000 0 -12783482.310 7701804.183 -20690766.952 10 0 59557 54000.00000 0 -15227145.024 7464969.100 -19062097.802 10 0 59557 54900.00000 0 -17458752.531 7422447.654 -17063448.743 10 0 59557 55800.00000 0 -19421093.579 7543276.509 -14733674.005 10 0 59557 56700.00000 0 -21065727.526 7787074.819 -12118032.128 10 0 59557 57600.00000 0 -22354825.762 8105930.168 -9267307.219 10 0 59557 58500.00000 0 -23262583.449 8446611.444 -6236824.396 10 0 59557 59400.00000 0 -23776143.729 8753014.954 -3085378.326 10 0 59557 60300.00000 0 -23895996.747 8968740.362 125904.623 10 0 59557 61200.00000 0 -23635837.644 9039687.591 3334748.580 10 0 59557 62100.00000 0 -23021890.278 8916565.004 6478932.014 10 0 59557 63000.00000 0 -22091725.556 8557202.843 9497490.035 10 0 59557 63900.00000 0 -20892624.344 7928574.127 12331891.933 10 0 59557 64800.00000 0 -19479553.780 7008437.415 14927171.428 10 0 59557 65700.00000 0 -17912841.812 5786531.607 17232988.075 10 0 59557 66600.00000 0 -16255647.199 4265271.689 19204599.563 10 0 59557 67500.00000 0 -14571330.578 2459915.030 20803726.573 10 0 59557 68400.00000 0 -12920836.104 398189.781 21999293.901 10 0 59557 69300.00000 0 -11360192.667 -1880600.697 22768033.799 10 0 59557 70200.00000 0 -9938238.607 -4326961.809 23094940.158 10 0 59557 71100.00000 0 -8694664.471 -6883024.334 22973564.750 10 0 59557 72000.00000 0 -7658455.305 -9484719.732 22406149.579 10 0 59557 72900.00000 0 -6846797.293 -12064225.336 21403592.345 10 0 59557 73800.00000 0 -6264494.370 -14552579.117 19985244.938 10 0 59557 74700.00000 0 -5903919.261 -16882356.200 18178548.016 10 0 59557 75600.00000 0 -5745501.053 -18990296.431 16018507.748 10 0 59557 76500.00000 0 -5758728.885 -20819773.812 13547023.841 10 0 59557 77400.00000 0 -5903629.557 -22323004.643 10812081.100 10 0 59557 78300.00000 0 -6132656.664 -23462901.841 7866819.538 10 0 59557 79200.00000 0 -6392911.135 -24214497.343 4768500.772 10 0 59557 80100.00000 0 -6628598.751 -24565872.440 1577390.912 10 0 59557 81000.00000 0 -6783619.777 -24518556.575 -1644417.959 10 0 59557 81900.00000 0 -6804179.901 -24087377.635 -4834224.057 10 0 59557 82800.00000 0 -6641310.614 -23299770.045 -7929945.185 10 0 59557 83700.00000 0 -6253190.812 -22194570.159 -10871336.054 10 0 59557 84600.00000 0 -5607169.929 -20820350.253 -13601168.867 10 0 59557 85500.00000 0 -4681405.656 -19233362.097 -16066353.144 99